Wind_Speed
4 3 3 3 4 4 4 6 8 10 11 10 10 11 12 10 8 6 7 5 5 5 5 5 5 5 4 4 3 1 1 1 2 2 2 2 2 3 3 3 3 3 3 3 3 2 2 2 2
4 4 3 3 5 4 5 8 11 13 15 15 12 11 12 11 8 6 7 7 7 6 6 6 7 6 5 5 4 3 1 2 2 2 3 3 3 3 3 4 4 4 4 4 4 3 3 2 1
5 4 3 4 4 6 6 9 12 16 18 16 14 14 14 11 8 7 7 6 7 7 7 7 8 8 7 6 5 4 3 2 3 3 3 4 4 4 4 4 5 5 5 5 5 5 4 3 3
5 4 3 3 4 5 7 9 13 17 19 18 17 16 14 11 9 7 6 6 7 8 8 9 9 9 9 8 7 6 4 4 4 4 4 5 5 5 5 6 6 6 6 6 6 6 6 5 5
6 4 3 4 6 6 7 10 13 17 19 19 18 18 15 11 9 8 7 8 9 10 10 10 10 10 10 10 9 7 6 5 5 5 5 6 6 6 7 7 7 7 7 7 7 7 7 6 6
5 4 4 5 7 8 8 11 17 20 22 22 20 18 15 12 12 10 9 10 11 12 12 11 12 12 11 11 10 9 7 7 6 6 6 7 7 7 8 8 8 8 8 8 8 8 7 7 7
6 5 6 8 7 7 9 14 19 22 24 21 20 18 16 14 13 11 11 11 12 13 13 14 14 13 13 12 12 10 9 8 8 7 7 8 8 9 9 9 9 9 9 9 9 8 8 8 8
7 7 8 7 7 8 11 15 19 21 21 20 19 18 17 15 14 13 12 13 13 13 15 15 16 15 15 14 12 11 11 10 9 8 9 8 9 10 9 9 9 9 10 10 9 9 9 9 9
8 8 8 8 8 9 13 16 19 19 20 20 19 19 18 17 14 14 13 13 14 14 15 15 15 16 16 15 13 12 11 11 10 9 9 10 10 10 10 10 9 10 10 10 10 10 10 10 9
9 9 9 8 9 10 12 17 19 19 18 19 19 20 18 19 16 14 14 15 16 17 17 16 17 16 16 15 14 14 12 12 11 10 10 10 9 9 10 9 9 10 9 9 9 10 9 9 8
10 10 10 9 9 10 11 14 16 16 17 17 19 19 20 19 17 16 15 16 18 18 18 18 19 19 18 16 15 15 14 12 11 11 10 10 10 10 10 9 8 8 8 8 8 8 8 8 7
11 11 11 9 9 10 11 12 14 15 17 17 19 21 19 17 16 16 15 16 18 18 19 19 20 19 18 17 16 15 14 13 11 11 11 10 10 10 9 8 7 7 6 6 6 7 7 7 7
11 11 10 8 8 9 10 11 13 14 16 17 19 20 20 19 18 16 13 14 17 18 19 19 19 19 19 18 17 16 15 14 13 12 11 11 10 8 7 7 7 6 5 5 5 6 7 7 7
10 10 9 9 9 9 9 11 13 14 16 17 19 20 19 19 18 15 13 13 14 15 17 17 19 20 19 18 17 16 15 14 13 12 10 9 8 7 7 6 5 5 4 4 4 4 5 6 6
10 8 7 8 8 9 11 11 13 15 16 17 19 19 19 19 17 15 14 13 13 14 15 17 19 20 19 19 18 16 14 13 12 11 10 8 8 7 6 5 4 3 3 3 3 4 4 4 4
9 8 5 6 8 9 11 10 12 15 15 17 18 18 18 18 17 15 13 12 13 14 16 17 17 20 19 19 17 15 14 13 12 11 10 9 7 6 5 4 3 3 2 2 2 2 2 3 4
8 7 6 7 10 12 12 12 13 14 15 16 18 18 18 17 16 13 11 10 12 14 17 16 17 18 18 17 15 15 14 13 12 10 9 8 7 5 5 5 4 3 3 2 1 1 1 2 3
8 8 7 8 12 14 15 15 14 14 15 15 17 18 18 15 15 13 10 8 10 12 15 16 18 19 18 17 16 15 14 13 12 10 9 8 7 6 6 5 4 3 3 2 0 0 1 1 2
9 9 9 9 13 16 17 16 15 15 15 16 16 16 16 15 13 12 9 6 7 9 13 16 18 19 19 18 17 15 14 14 13 10 10 10 8 7 6 5 4 4 3 2 1 1 1 1 2
10 9 9 10 14 17 17 16 15 15 15 15 14 13 14 15 13 11 8 5 6 7 11 15 17 18 18 17 17 16 15 14 13 11 11 10 9 7 6 5 5 5 4 2 2 1 1 2 2
10 10 10 12 15 17 19 18 16 14 14 14 12 11 11 12 12 9 7 3 5 7 10 13 15 17 17 17 17 15 14 14 13 12 11 11 9 8 7 6 5 5 4 3 1 1 1 2 2
11 11 12 15 17 18 19 20 17 15 13 11 10 10 10 9 10 8 5 2 3 6 10 12 13 15 16 17 17 16 14 14 14 13 13 12 10 9 8 6 5 5 4 3 1 0 1 2 3
12 12 14 16 17 18 19 20 18 15 12 9 8 8 8 8 8 8 6 3 2 6 9 10 13 13 15 16 16 16 16 16 15 14 13 12 11 10 8 6 6 5 4 3 2 1 2 3 3
14 15 17 18 18 19 19 19 17 15 10 8 6 6 7 7 7 7 6 4 3 5 7 9 12 13 13 14 16 17 17 16 16 15 14 12 11 10 8 7 7 6 5 3 2 2 3 3 4
16 16 18 19 18 19 19 18 14 12 8 6 6 5 5 6 7 6 4 3 3 5 7 9 11 12 12 13 15 16 16 16 15 15 14 13 11 10 9 8 8 7 6 5 4 5 5 5 5
16 17 18 19 19 18 18 16 13 10 7 5 5 4 3 4 5 5 3 2 2 4 7 9 11 12 13 13 14 15 15 15 15 15 14 13 12 11 10 10 9 8 8 7 7 7 7 7 8
18 19 19 20 20 19 17 15 11 9 7 4 3 2 3 3 4 4 2 2 2 4 7 9 10 11 12 14 14 14 15 15 15 15 14 13 13 12 12 11 11 10 10 10 10 10 10 10 11
19 19 19 20 21 20 18 15 12 10 5 4 4 2 1 1 2 2 1 1 2 3 6 8 10 11 12 13 14 14 15 15 15 15 14 14 13 13 13 12 12 12 12 13 13 13 13 14 14
20 20 20 21 20 21 20 16 13 10 7 5 3 1 1 1 1 1 1 1 2 3 4 7 8 9 10 12 14 14 15 15 15 15 15 15 15 14 14 14 14 14 15 15 15 16 16 16 16
22 22 22 22 21 20 20 19 14 12 9 7 5 4 3 2 2 2 3 3 3 3 4 5 7 8 9 11 12 14 15 16 16 15 15 16 16 16 16 16 16 17 17 17 18 19 19 19 19
Wind_Direction
350 350 353 355 359 21 34 30 8 352 342 334 329 318 312 313 312 294 279 263 244 225 206 199 197 191 181 175 174 185 239 324 336 341 330 320 321 326 332 336 336 336 335 335 341 346 351 15 39
342 340 336 328 340 349 12 10 360 348 338 333 326 318 316 311 298 283 271 260 244 230 213 206 205 200 195 193 196 204 235 284 304 318 315 306 304 306 314 320 318 317 318 317 319 322 319 321 343
331 329 330 326 316 341 1 358 353 342 334 329 322 317 319 310 292 273 260 249 234 235 228 219 213 209 207 206 206 211 228 258 275 291 298 295 297 298 301 306 308 308 307 306 307 307 305 304 303
326 324 319 313 312 338 347 345 342 334 327 322 317 318 316 313 291 275 252 235 235 235 233 227 220 216 213 213 215 219 232 248 261 275 286 289 293 297 300 302 303 303 301 301 302 300 297 296 295
320 317 303 301 297 318 330 331 323 320 321 319 315 317 318 319 301 277 247 240 239 236 231 229 228 223 219 218 219 223 233 244 255 267 276 283 289 294 294 296 298 299 299 298 296 296 293 291 287
306 287 262 284 298 315 323 323 314 315 318 318 315 316 317 312 301 279 259 254 242 236 232 230 230 227 223 221 221 225 235 242 250 262 271 276 283 290 290 292 294 293 293 294 291 289 290 288 283
282 261 257 279 297 314 322 316 313 315 318 318 316 316 315 307 296 286 272 265 248 241 239 232 230 229 226 224 226 229 236 241 247 256 267 277 283 284 288 290 292 290 288 289 289 286 287 287 284
274 259 254 273 294 315 317 311 312 315 319 319 318 316 311 307 296 284 269 264 254 247 242 237 232 230 228 228 231 234 237 242 248 257 263 272 280 281 283 287 290 289 288 286 286 287 287 285 283
273 256 256 272 293 310 311 310 313 317 319 321 320 317 311 308 300 286 271 261 253 247 237 232 230 228 228 229 234 234 237 242 248 255 261 268 276 280 284 284 285 288 289 285 284 287 287 284 281
268 254 262 276 289 301 306 308 312 318 322 324 324 322 316 309 300 289 274 261 252 244 233 232 229 228 226 228 233 234 235 238 243 252 262 269 276 282 286 284 287 291 289 284 280 284 286 286 281
264 254 264 272 287 297 303 306 311 322 326 329 328 324 317 310 301 289 277 261 252 239 232 232 230 228 225 226 231 232 232 234 240 252 260 266 271 280 282 284 291 291 288 282 277 283 286 289 286
261 254 258 270 286 296 302 308 315 326 330 331 329 328 322 312 306 291 278 260 248 239 237 231 224 224 224 225 227 229 232 235 241 249 252 260 270 276 276 277 284 286 285 283 284 283 287 290 290
263 255 257 269 282 294 309 312 318 330 333 332 332 329 323 317 310 296 275 255 245 239 229 226 225 221 220 222 226 229 232 235 240 243 246 256 264 264 265 273 278 280 279 280 289 285 289 291 289
268 263 261 270 282 293 307 311 317 333 337 335 336 334 326 320 317 302 281 268 253 233 227 225 222 218 218 224 226 229 232 237 241 242 246 250 248 249 261 268 273 276 272 279 292 295 297 299 292
264 265 275 289 295 302 312 322 327 337 339 336 333 331 329 325 319 311 295 275 255 241 229 224 222 215 216 218 220 223 227 236 240 240 242 239 235 241 249 254 255 259 261 275 293 302 303 306 297
260 260 268 303 306 311 319 330 330 333 336 336 334 332 331 329 322 310 296 278 259 240 226 219 219 211 212 214 214 220 227 231 237 237 237 231 226 228 231 227 227 233 244 269 286 302 321 324 318
252 252 271 307 314 322 326 330 325 326 330 332 334 333 331 329 328 317 295 274 253 233 227 219 214 213 210 212 216 221 226 227 231 232 230 220 214 213 208 199 207 224 221 226 257 285 333 335 334
247 256 279 311 313 317 318 322 323 325 328 327 330 333 333 331 331 326 311 280 248 231 225 217 211 209 208 211 212 214 218 221 223 223 217 211 207 205 197 198 206 210 201 197 240 67 357 347 359
249 270 292 309 308 309 311 314 315 319 327 329 325 329 334 333 332 328 321 291 251 235 216 205 202 201 204 205 208 211 212 213 213 212 205 202 198 191 187 197 193 183 178 170 144 78 49 27 19
253 273 289 297 299 303 306 309 311 319 320 321 321 326 334 335 335 332 327 292 244 220 205 203 197 196 202 204 201 202 202 202 202 196 195 196 192 187 189 185 173 172 174 159 125 95 42 25 7
253 269 283 289 291 294 300 302 303 305 314 320 324 330 337 341 338 335 333 285 226 211 197 193 198 198 199 200 198 196 197 198 195 194 194 193 189 188 184 175 176 179 181 172 146 99 31 9 359
249 266 276 282 286 291 296 299 300 299 302 314 325 335 338 345 350 348 350 331 215 194 185 192 201 195 197 198 193 191 193 193 194 194 191 188 187 188 184 182 183 184 181 178 182 153 10 359 353
245 261 268 276 281 286 294 298 298 300 301 308 325 340 346 355 4 9 10 35 141 173 184 193 196 192 194 194 196 196 194 191 190 189 187 189 192 193 193 192 189 189 190 194 204 274 331 343 344
242 255 266 274 279 286 293 298 303 300 300 302 320 341 1 5 10 13 22 58 125 154 170 182 184 185 187 190 193 191 188 188 189 189 191 194 196 197 203 209 198 197 203 215 243 281 304 319 326
241 255 266 269 274 285 293 298 304 300 296 304 319 340 2 16 15 12 24 71 132 160 165 168 173 183 185 185 185 183 185 188 192 193 195 198 201 206 212 216 211 214 223 237 259 277 290 302 309
242 252 264 274 277 285 292 302 306 302 291 299 315 326 344 14 20 16 29 96 153 156 163 168 174 181 184 185 185 187 188 191 194 198 201 205 211 217 222 225 225 231 240 251 263 273 281 290 297
244 248 259 269 274 283 291 299 310 309 293 295 309 330 341 10 20 14 30 76 133 161 173 179 179 181 183 187 187 190 191 195 200 206 212 214 218 224 229 231 238 244 250 258 266 271 276 283 288
249 252 255 262 269 280 289 296 303 317 306 299 318 312 332 341 6 15 13 86 145 167 177 184 188 189 192 194 194 196 199 203 209 213 215 220 225 230 237 241 247 253 258 263 267 271 275 280 286
240 247 253 259 264 275 282 290 291 298 311 305 311 341 320 295 308 333 320 256 197 193 200 204 199 202 203 203 204 207 210 214 217 221 223 228 233 237 243 250 255 259 262 265 269 273 276 280 283
243 248 254 259 263 272 280 285 282 288 295 302 301 302 296 273 258 281 276 253 227 217 214 214 216 217 213 211 213 217 221 224 225 229 232 233 237 243 250 256 260 263 267 269 271 273 276 279 281
Height
5906 5905 5905 5905 5904 5902 5901 5900 5899 5898 5898 5898 5898 5897 5897 5898 5899 5900 5897 5895 5896 5896 5897 5898 5899 5900 5901 5902 5903 5904 5904 5904 5904 5904 5904 5904 5903 5903 5902 5902 5901 5901 5900 5900 5899 5899 5899 5899 5898
5906 5905 5905 5905 5903 5901 5900 5899 5898 5898 5897 5896 5897 5896 5896 5896 5896 5895 5894 5894 5894 5895 5896 5897 5899 5900 5901 5902 5903 5903 5904 5904 5905 5905 5905 5904 5904 5903 5903 5902 5902 5901 5901 5900 5900 5899 5899 5899 5898
5906 5905 5905 5903 5902 5901 5900 5898 5897 5897 5896 5895 5895 5895 5895 5895 5894 5893 5893 5892 5893 5894 5895 5896 5897 5899 5900 5901 5902 5903 5904 5904 5904 5905 5905 5904 5904 5903 5903 5902 5902 5901 5901 5900 5900 5899 5899 5898 5898
5905 5905 5904 5904 5901 5900 5898 5898 5897 5897 5896 5895 5893 5893 5892 5893 5892 5891 5890 5890 5891 5893 5894 5895 5896 5897 5899 5900 5901 5902 5903 5903 5904 5904 5904 5904 5904 5903 5903 5902 5902 5901 5901 5900 5899 5899 5898 5898 5898
5904 5904 5904 5902 5900 5899 5897 5897 5896 5896 5895 5894 5893 5891 5890 5890 5890 5889 5888 5888 5889 5891 5892 5893 5894 5896 5897 5898 5900 5901 5902 5903 5903 5904 5904 5904 5903 5903 5903 5902 5902 5901 5900 5900 5899 5898 5898 5898 5898
5904 5903 5903 5901 5899 5897 5896 5895 5895 5893 5893 5892 5890 5889 5888 5888 5887 5886 5885 5886 5887 5888 5889 5891 5892 5894 5895 5897 5898 5899 5900 5901 5902 5903 5903 5903 5903 5902 5902 5902 5901 5900 5900 5899 5898 5898 5898 5897 5897
5904 5902 5901 5899 5898 5897 5896 5895 5893 5892 5890 5889 5888 5887 5886 5886 5884 5883 5882 5883 5884 5885 5887 5888 5890 5892 5893 5895 5896 5898 5899 5900 5901 5901 5902 5902 5902 5901 5901 5901 5900 5899 5898 5898 5897 5897 5897 5896 5896
5902 5902 5899 5898 5897 5896 5895 5894 5892 5891 5889 5887 5886 5884 5882 5882 5881 5880 5879 5879 5879 5880 5883 5885 5887 5889 5891 5893 5894 5896 5897 5898 5899 5900 5900 5900 5900 5900 5900 5899 5898 5898 5897 5897 5896 5896 5895 5895 5895
5901 5901 5898 5897 5895 5894 5894 5892 5891 5889 5888 5885 5883 5881 5878 5877 5877 5876 5875 5875 5876 5877 5880 5882 5884 5886 5888 5891 5892 5894 5895 5896 5897 5898 5898 5899 5898 5898 5898 5898 5897 5896 5896 5895 5895 5894 5894 5894 5893
5899 5898 5897 5896 5894 5893 5892 5891 5889 5887 5886 5883 5880 5878 5875 5873 5872 5872 5871 5871 5872 5873 5875 5878 5881 5883 5885 5887 5890 5891 5893 5894 5895 5896 5896 5897 5897 5897 5897 5896 5895 5895 5894 5894 5893 5892 5892 5892 5892
5897 5896 5895 5894 5892 5891 5890 5889 5887 5885 5883 5881 5878 5875 5872 5869 5868 5867 5866 5866 5867 5868 5870 5874 5877 5880 5882 5884 5887 5888 5890 5892 5893 5894 5894 5895 5895 5895 5895 5895 5894 5893 5893 5892 5892 5891 5891 5890 5890
5895 5894 5892 5892 5891 5890 5889 5887 5885 5884 5882 5879 5876 5872 5868 5866 5864 5863 5862 5862 5862 5864 5866 5870 5873 5876 5878 5881 5883 5886 5888 5889 5891 5892 5892 5893 5893 5894 5894 5893 5893 5892 5892 5891 5891 5890 5890 5889 5889
5892 5891 5890 5889 5888 5888 5887 5885 5883 5881 5879 5876 5873 5869 5866 5863 5860 5858 5858 5858 5858 5860 5861 5864 5868 5871 5875 5878 5880 5883 5885 5887 5888 5889 5890 5891 5892 5892 5892 5892 5891 5891 5891 5890 5890 5889 5888 5888 5888
5890 5888 5887 5887 5886 5885 5884 5883 5881 5879 5876 5873 5870 5867 5863 5860 5857 5855 5854 5854 5854 5855 5858 5861 5864 5867 5871 5874 5877 5880 5882 5884 5886 5887 5889 5889 5890 5890 5891 5890 5890 5890 5890 5889 5889 5888 5888 5887 5886
5887 5886 5886 5885 5884 5883 5883 5881 5878 5876 5874 5871 5868 5865 5861 5857 5854 5852 5850 5850 5851 5853 5855 5858 5860 5864 5868 5871 5875 5877 5880 5881 5883 5884 5886 5887 5888 5889 5889 5889 5889 5889 5889 5888 5888 5887 5887 5886 5886
5884 5885 5884 5884 5882 5881 5881 5879 5877 5874 5872 5869 5866 5863 5859 5855 5851 5848 5847 5846 5846 5848 5852 5854 5856 5860 5865 5868 5871 5874 5877 5879 5880 5882 5884 5885 5886 5887 5887 5888 5888 5888 5888 5888 5887 5887 5886 5885 5885
5882 5882 5882 5881 5879 5878 5878 5876 5875 5872 5870 5867 5864 5861 5857 5852 5849 5846 5844 5843 5843 5844 5848 5851 5854 5858 5862 5866 5869 5872 5874 5876 5878 5880 5882 5883 5885 5885 5886 5887 5887 5887 5887 5887 5886 5886 5885 5885 5884
5880 5879 5878 5878 5877 5876 5875 5874 5872 5870 5867 5865 5862 5859 5854 5850 5847 5844 5841 5840 5841 5842 5844 5847 5850 5854 5859 5863 5866 5869 5872 5874 5876 5878 5880 5882 5883 5884 5885 5886 5886 5886 5886 5886 5886 5885 5885 5885 5884
5877 5876 5875 5875 5874 5873 5872 5871 5869 5867 5865 5863 5859 5856 5853 5849 5846 5842 5839 5837 5839 5840 5841 5844 5847 5851 5856 5860 5864 5867 5870 5872 5874 5876 5878 5880 5882 5883 5884 5885 5885 5885 5885 5885 5885 5885 5885 5884 5884
5873 5873 5873 5873 5872 5870 5868 5868 5867 5865 5863 5861 5858 5855 5851 5848 5845 5841 5838 5836 5836 5838 5840 5843 5845 5849 5853 5857 5861 5865 5867 5870 5872 5874 5876 5878 5880 5882 5883 5884 5884 5884 5885 5885 5885 5884 5884 5884 5883
5870 5871 5870 5871 5870 5868 5866 5865 5864 5863 5861 5859 5856 5853 5850 5847 5843 5839 5837 5834 5835 5836 5839 5842 5844 5847 5851 5854 5858 5863 5865 5868 5870 5872 5875 5877 5879 5880 5882 5882 5883 5884 5884 5884 5884 5884 5883 5883 5883
5867 5868 5868 5868 5867 5866 5865 5863 5862 5860 5859 5857 5854 5851 5848 5845 5842 5839 5836 5835 5835 5836 5838 5840 5843 5845 5849 5852 5856 5860 5863 5866 5868 5871 5873 5875 5877 5879 5880 5881 5881 5882 5883 5883 5883 5883 5882 5882 5882
5863 5864 5865 5865 5864 5863 5862 5860 5860 5857 5856 5854 5852 5849 5846 5844 5841 5838 5836 5834 5834 5835 5837 5839 5841 5844 5848 5850 5854 5858 5861 5864 5867 5869 5872 5874 5876 5877 5878 5879 5880 5880 5881 5882 5882 5882 5881 5881 5880
5859 5861 5861 5861 5861 5860 5859 5857 5855 5854 5853 5851 5849 5847 5844 5842 5840 5838 5836 5835 5835 5836 5836 5838 5840 5843 5846 5849 5852 5855 5858 5862 5865 5868 5870 5872 5874 5875 5876 5877 5878 5879 5880 5880 5880 5880 5880 5879 5878
5856 5857 5858 5857 5857 5856 5855 5854 5853 5851 5850 5848 5847 5845 5842 5840 5839 5838 5836 5836 5836 5836 5837 5839 5840 5843 5846 5848 5851 5854 5858 5861 5863 5866 5869 5870 5872 5873 5875 5875 5876 5877 5878 5878 5878 5878 5877 5877 5876
5852 5854 5854 5854 5853 5852 5851 5850 5850 5848 5847 5846 5844 5843 5841 5839 5839 5838 5837 5836 5836 5836 5837 5839 5841 5843 5845 5847 5850 5853 5856 5859 5862 5865 5866 5868 5869 5871 5872 5873 5874 5874 5875 5875 5875 5875 5874 5874 5873
5848 5849 5850 5850 5849 5848 5847 5847 5847 5845 5844 5844 5842 5841 5840 5839 5838 5838 5837 5836 5836 5836 5837 5839 5841 5842 5844 5847 5849 5852 5854 5857 5860 5862 5864 5865 5866 5868 5869 5870 5871 5871 5871 5871 5871 5871 5871 5870 5869
5843 5844 5845 5845 5845 5844 5844 5844 5844 5843 5842 5842 5840 5839 5838 5837 5837 5837 5837 5836 5836 5837 5837 5838 5840 5842 5843 5845 5848 5850 5853 5856 5858 5860 5861 5862 5863 5865 5866 5866 5867 5867 5868 5867 5867 5867 5866 5866 5865
5838 5839 5839 5840 5841 5841 5840 5843 5841 5841 5840 5840 5839 5837 5837 5836 5836 5836 5836 5836 5836 5836 5837 5838 5839 5841 5842 5844 5846 5849 5851 5853 5855 5857 5858 5859 5860 5861 5862 5863 5863 5863 5863 5863 5863 5862 5862 5861 5860
5832 5834 5835 5836 5836 5836 5836 5840 5838 5838 5837 5837 5836 5836 5835 5835 5835 5835 5835 5835 5835 5836 5836 5837 5839 5840 5841 5842 5844 5846 5848 5850 5852 5853 5854 5855 5856 5857 5858 5858 5858 5858 5858 5858 5857 5857 5856 5856 5855